RH
50 46 45 46 48 54 84 84 89 68 79 76 84 91 91 80 85 87 82 76 78 80 89 94 96 94 92 94 100 98 100 97 69 59 54 37 38 46 49 48 39 28 22 19
75 66 64 63 73 92 88 89 88 91 100 93 87 83 85 99 94 68 67 67 82 91 89 82 75 86 95 100 100 100 98 77 69 57 50 52 55 53 46 34 26 23 25 27
96 84 88 92 75 70 72 75 76 79 73 76 80 87 83 74 64 61 58 62 74 82 89 97 100 100 98 97 100 99 83 72 66 65 63 62 56 45 33 27 24 24 30 36
95 98 96 60 70 67 67 68 70 74 82 85 82 75 68 64 59 58 61 66 75 86 96 100 100 100 97 97 97 86 76 70 73 73 69 59 46 37 32 28 25 25 33 43
97 93 73 81 79 71 76 71 72 68 68 71 74 73 71 70 71 70 72 76 80 85 90 96 100 100 97 97 100 92 83 77 76 69 60 52 46 39 35 31 28 29 41 49
99 100 99 69 67 68 68 77 60 74 85 83 73 78 62 74 75 78 80 80 84 90 91 94 100 100 96 93 83 84 82 78 77 74 68 61 51 43 38 34 30 36 46 55
69 98 84 74 77 82 89 79 90 88 80 84 83 84 72 72 74 79 80 82 83 84 86 92 95 95 90 81 77 81 78 75 76 76 71 64 56 49 42 38 39 45 53 54
86 92 87 70 74 80 79 80 87 88 90 88 87 86 85 81 77 77 76 76 80 80 79 80 81 79 75 73 77 75 71 68 71 74 74 68 60 51 49 48 47 50 54 52
84 73 74 81 78 85 86 83 82 79 80 84 81 79 80 76 77 76 76 78 80 81 78 77 79 78 69 69 72 73 67 66 71 77 77 71 62 55 53 53 54 54 55 52
92 74 84 82 72 71 72 67 66 64 62 63 62 63 64 67 66 67 69 72 75 76 74 72 75 76 74 75 78 76 70 70 75 78 79 72 66 62 57 57 59 59 56 51
76 61 63 48 43 42 39 36 37 40 43 45 47 46 50 49 50 54 56 59 65 66 69 69 73 71 73 77 82 76 72 70 73 75 74 70 69 65 62 62 62 59 56 53
49 39 36 29 35 35 33 31 33 39 36 39 45 51 54 51 53 56 56 57 58 60 62 62 65 65 67 76 80 76 69 69 73 72 74 72 67 62 68 64 63 60 57 56
75 72 66 68 72 80 79 80 76 68 61 56 49 48 46 45 44 52 55 58 62 64 63 64 63 62 69 76 77 74 70 71 72 75 76 73 71 67 58 57 59 55 53 55
91 91 73 84 79 79 88 88 89 87 89 94 96 93 86 71 60 56 54 59 62 66 68 71 70 65 73 76 75 71 69 70 71 71 71 69 68 65 60 54 48 46 48 52
93 95 95 91 87 90 96 96 94 92 97 96 100 100 100 99 93 89 80 67 62 60 60 64 62 60 74 79 77 72 71 70 72 71 69 68 66 63 60 55 52 46 43 46
88 92 100 98 95 91 96 98 100 95 98 96 95 99 100 100 99 96 97 100 96 68 62 61 57 63 67 70 74 74 74 75 74 71 67 65 63 61 57 53 51 46 43 44
100 89 98 93 99 95 92 95 96 92 92 94 96 100 100 99 95 95 98 100 98 92 78 60 60 65 64 65 70 72 76 77 80 76 73 70 68 64 62 58 53 45 43 46
100 100 100 98 96 96 94 99 100 100 100 100 100 98 97 100 100 100 100 100 99 96 98 94 71 63 62 62 62 62 73 80 82 79 76 73 74 70 64 59 53 49 43 45
100 100 100 100 100 100 100 100 100 100 100 100 100 100 100 100 100 100 100 99 97 98 100 100 86 64 62 63 62 59 64 78 85 84 81 78 75 74 71 68 59 52 46 43
100 100 100 100 100 100 100 100 100 98 100 100 100 100 100 99 100 100 100 96 98 100 100 100 93 78 65 68 65 62 62 68 78 83 84 84 84 77 72 66 62 56 48 45
100 100 100 100 100 100 100 100 100 96 97 100 100 100 100 95 100 100 99 95 100 100 99 96 96 97 67 65 66 65 64 66 78 88 93 95 95 89 76 69 65 60 48 44
100 100 100 100 100 100 100 100 100 100 100 100 100 100 100 95 98 97 96 100 95 100 100 100 100 100 92 73 71 69 66 70 77 96 98 95 88 84 81 75 69 62 50 45
100 100 100 100 100 100 100 100 100 100 100 100 100 100 100 98 100 100 93 99 99 100 100 100 100 100 100 98 89 91 86 69 71 85 95 90 86 88 87 79 71 63 51 45
100 100 100 100 100 100 100 100 100 100 100 100 100 100 100 99 94 100 100 100 100 100 100 100 100 100 100 100 100 100 88 79 71 64 68 76 79 88 85 78 72 63 53 45
100 100 100 100 100 100 100 100 100 100 91 88 93 99 100 100 100 100 100 100 100 100 100 100 100 100 100 96 96 90 84 74 70 69 70 66 73 85 79 75 69 61 55 46
100 100 100 100 100 100 100 100 100 100 100 100 99 99 99 100 100 100 100 100 100 100 100 100 100 100 100 100 98 95 89 84 74 69 65 57 55 69 73 73 68 61 55 46
94 95 88 90 90 96 100 100 100 99 100 100 99 100 100 100 100 100 100 100 100 100 100 100 100 100 100 100 100 100 98 94 84 73 66 60 51 59 72 71 68 62 54 48
Wind_Speed
33 32 34 39 41 41 36 40 40 52 46 49 49 52 56 53 48 39 39 43 42 43 42 40 42 45 47 47 46 44 43 41 38 38 36 35 36 37 38 41 43 44 44 43
33 34 35 43 40 39 43 46 51 50 50 50 51 51 48 43 41 40 40 42 41 42 42 42 43 43 41 40 39 40 38 37 35 34 33 34 35 36 37 39 41 42 42 41
29 22 24 29 30 29 31 32 35 39 40 37 37 36 35 37 40 40 41 40 40 41 41 40 39 40 40 39 35 34 32 33 34 34 34 34 35 35 37 39 40 40 40 40
27 23 9 16 6 7 17 26 29 30 31 32 34 37 38 34 34 35 36 35 34 33 34 34 35 35 36 34 31 32 32 33 33 33 33 34 34 36 37 39 39 40 39 38
10 14 23 26 26 20 16 28 28 32 35 34 30 28 32 39 38 37 35 35 34 33 33 34 33 34 35 34 33 32 32 32 32 33 34 35 36 37 38 38 39 40 39 38
16 7 6 5 15 30 35 31 29 21 21 35 43 40 37 39 38 36 35 35 35 34 35 34 33 32 32 32 32 31 32 33 33 34 36 36 37 37 37 38 40 40 38 37
24 19 15 22 24 24 14 19 17 41 40 42 43 43 43 42 39 38 36 35 35 35 35 34 34 33 33 33 33 33 34 34 35 35 36 37 36 36 37 37 39 38 38 35
11 11 13 19 21 29 38 45 44 43 44 43 43 42 41 40 39 39 39 37 36 36 35 35 35 35 34 34 33 34 35 35 35 35 35 36 36 36 36 37 38 37 37 35
14 16 28 36 39 40 43 43 41 40 40 41 42 42 41 41 40 39 39 38 37 37 36 35 34 35 36 34 34 35 36 36 35 35 34 34 35 35 35 35 36 35 36 35
28 31 33 37 38 38 39 41 42 42 42 43 45 43 43 42 41 41 39 39 38 38 37 36 34 35 35 34 34 35 35 35 33 33 33 32 32 33 33 33 34 34 34 33
31 32 35 35 35 37 39 40 42 42 43 44 44 44 43 43 42 41 40 39 38 38 37 36 35 35 34 34 34 35 35 33 32 32 31 30 30 30 30 30 31 31 31 32
34 34 37 35 32 33 37 38 37 40 41 40 41 42 41 42 41 40 40 39 38 37 38 37 36 35 33 33 33 34 34 32 31 31 29 29 30 28 26 27 27 27 27 30
31 32 36 34 33 33 36 36 36 39 39 40 36 39 40 41 39 40 39 38 37 37 37 36 36 35 32 32 33 34 33 32 31 30 28 28 28 28 28 23 23 23 23 25
31 36 35 33 38 34 36 37 38 39 39 39 40 38 39 40 40 40 40 38 37 38 37 35 35 33 30 31 33 33 31 30 29 28 27 27 26 27 26 27 25 19 17 21
33 35 38 39 36 36 37 38 39 38 38 37 37 39 38 38 38 36 35 34 35 37 36 35 36 32 30 31 32 31 30 29 27 26 26 26 25 25 25 25 25 24 22 19
36 35 36 38 37 36 36 36 39 38 37 37 38 38 38 39 39 37 34 31 33 34 33 34 34 31 31 32 31 29 28 27 27 25 24 24 24 23 23 23 23 23 22 22
41 39 37 38 38 37 36 36 38 38 38 38 37 36 36 37 37 35 33 32 32 31 29 29 28 28 29 29 30 30 26 24 24 24 24 23 22 22 23 23 23 22 20 20
39 39 39 41 42 43 41 39 38 39 39 39 39 38 38 37 37 34 33 32 33 32 27 26 27 28 27 27 28 27 26 23 22 23 23 22 21 22 21 22 21 21 20 18
39 41 41 40 40 43 43 42 41 40 38 37 38 38 36 36 36 35 33 32 32 30 23 25 26 27 26 24 24 26 24 23 22 21 21 21 21 20 20 21 21 20 20 19
40 40 40 41 39 39 41 39 40 40 38 37 36 35 35 33 33 33 32 31 30 27 26 25 24 24 23 22 22 22 23 22 21 20 19 19 19 19 19 19 19 19 19 19
42 42 41 41 40 38 37 38 38 39 38 36 35 34 33 31 30 31 30 29 24 24 25 25 22 21 20 19 18 18 20 20 21 20 19 19 19 20 19 18 17 18 18 18
43 43 42 41 39 39 37 36 36 37 35 35 33 32 33 32 31 29 27 28 23 22 22 22 19 19 19 17 17 16 16 18 20 20 21 20 19 16 16 17 17 16 16 17
44 44 43 39 38 38 37 34 33 32 32 31 33 32 31 30 30 30 28 23 24 21 19 19 18 17 15 13 15 16 18 18 20 22 23 22 19 16 16 17 16 15 14 14
44 43 39 36 34 34 35 31 30 29 30 32 31 31 31 32 27 22 23 22 21 19 17 17 16 13 11 16 19 20 20 20 19 20 22 23 20 17 17 16 14 13 12 12
41 38 36 33 33 35 33 28 31 33 37 36 35 33 30 25 26 24 23 23 21 20 18 15 14 14 19 20 18 17 15 15 15 16 18 18 17 17 17 15 13 11 10 9
39 38 37 37 38 38 32 28 28 36 42 37 32 28 27 28 29 28 26 22 19 18 17 16 15 13 15 17 16 15 13 13 13 14 16 16 18 18 17 15 13 11 10 8
42 41 41 40 37 30 27 25 31 41 35 30 28 28 27 26 24 21 20 20 18 16 14 14 14 13 13 13 13 12 13 13 12 13 15 15 14 16 16 14 13 11 9 7
Wind_Direction
261 262 267 269 270 272 267 263 250 268 267 277 277 279 286 290 291 290 290 291 289 285 283 281 280 279 280 279 279 280 278 278 279 279 280 284 289 293 294 294 293 293 293 293
273 276 278 277 274 270 266 265 267 271 273 276 281 286 287 288 289 289 289 291 288 285 284 283 284 283 283 280 280 279 278 279 278 279 283 287 289 291 292 293 294 294 295 295
272 278 282 278 274 270 269 269 271 272 278 281 281 282 284 286 291 293 293 292 289 286 285 283 281 280 281 280 278 277 277 277 279 282 285 286 288 290 292 293 295 295 296 295
275 286 264 271 266 266 282 286 281 279 283 285 287 288 291 295 297 298 298 296 293 292 290 286 284 283 281 278 276 277 278 279 282 284 285 287 289 291 292 294 296 296 295 294
250 241 271 277 281 289 296 299 297 292 289 289 294 297 299 301 300 298 296 293 292 291 288 286 285 282 279 278 279 280 280 280 282 283 285 287 289 290 292 295 296 295 294 293
246 249 258 252 297 298 299 294 295 298 298 304 304 298 301 300 298 295 294 293 292 290 287 286 284 283 282 281 280 280 280 280 283 285 286 287 288 289 293 296 296 295 293 293
253 256 264 282 290 301 300 300 298 305 306 304 301 298 297 296 295 295 293 291 289 288 288 287 285 283 281 280 280 280 279 281 282 284 285 287 288 291 293 295 295 295 293 292
254 264 273 278 296 302 297 298 299 300 301 297 295 294 293 293 294 294 293 291 290 288 286 285 285 284 282 281 281 281 280 281 283 285 286 287 288 290 293 294 294 294 291 290
268 266 280 290 294 295 296 296 297 295 296 295 294 293 294 294 294 292 292 292 291 289 287 287 287 286 284 286 284 282 282 283 283 283 285 287 288 290 292 291 292 293 292 293
290 289 292 294 295 298 299 298 298 298 298 296 296 297 297 297 296 295 295 293 292 290 289 288 287 285 286 285 284 282 282 282 284 284 285 286 287 289 290 292 293 293 293 293
295 300 299 298 303 301 298 297 297 298 297 296 296 296 297 296 294 294 294 293 292 292 291 289 288 287 286 286 285 284 283 284 285 285 286 285 285 287 289 291 293 296 298 299
302 308 301 307 309 302 299 298 298 295 294 294 296 296 296 294 295 295 293 292 291 290 288 288 286 285 285 285 285 284 284 285 286 286 286 285 285 284 287 290 293 295 296 299
313 310 309 317 310 309 304 305 302 299 300 301 299 296 295 296 296 294 293 294 293 291 289 289 288 286 287 285 282 281 282 283 284 285 285 285 286 287 287 283 286 291 296 297
320 315 316 316 312 312 308 306 303 302 303 301 301 299 298 297 297 295 295 295 292 290 288 288 287 286 287 283 280 280 281 281 283 283 283 283 285 287 290 292 293 290 293 296
325 321 320 318 317 314 311 310 306 306 304 302 298 297 294 292 292 295 296 295 292 289 289 288 286 287 284 281 280 279 279 280 280 281 280 282 284 287 290 294 297 300 301 298
328 327 322 318 319 318 315 313 310 311 309 307 305 303 301 299 298 296 295 295 292 290 288 287 286 288 281 277 277 277 276 277 277 278 277 278 282 285 287 291 297 300 302 304
326 330 328 326 325 324 321 318 314 312 310 309 307 306 303 302 301 301 299 295 290 292 294 291 287 280 276 275 274 273 276 274 274 274 276 277 281 284 288 291 295 297 303 308
325 326 326 326 327 327 328 326 322 318 315 314 310 308 306 304 303 302 300 296 291 291 298 296 287 283 281 278 275 273 270 272 271 270 271 274 276 278 283 289 296 300 301 304
327 326 325 324 323 322 323 325 324 321 319 314 310 310 308 307 305 303 299 296 295 295 294 287 286 285 285 283 276 272 267 264 267 270 268 268 271 276 283 289 292 297 302 304
325 323 322 322 321 319 318 319 320 321 322 317 314 312 310 309 305 303 301 298 297 298 288 284 287 288 285 282 278 274 270 266 264 266 265 267 269 273 278 284 293 299 303 305
324 324 324 323 321 319 317 317 318 320 323 321 318 317 314 313 308 305 304 302 305 292 285 283 286 290 285 281 275 271 267 263 258 260 262 264 268 276 278 282 289 295 300 304
327 325 325 324 321 320 321 319 318 319 321 320 319 317 315 315 312 309 308 308 303 296 290 286 280 282 287 283 277 269 261 257 254 253 257 264 270 274 277 283 286 290 298 305
328 328 327 325 323 322 321 319 318 320 321 322 321 320 319 317 315 313 311 309 306 303 294 283 277 279 287 283 279 281 276 266 257 254 254 262 269 273 275 278 280 285 294 304
331 331 329 327 324 321 323 324 324 326 324 326 327 325 323 319 317 318 316 316 311 306 299 291 283 274 289 289 281 275 278 278 272 265 259 262 267 267 267 268 272 279 292 305
332 332 332 333 333 334 333 331 330 333 329 326 326 325 320 319 317 320 318 314 307 301 298 291 279 263 248 260 275 276 275 272 266 262 259 257 254 251 255 259 265 270 281 296
339 341 343 343 340 339 337 330 333 325 324 323 324 318 319 322 321 319 317 315 309 300 291 284 281 273 263 265 275 281 281 277 270 264 260 252 245 242 246 251 257 263 271 284
346 346 344 341 340 349 341 325 315 319 330 332 326 329 323 322 322 319 317 314 310 302 293 284 276 272 271 262 265 272 275 276 270 263 258 259 250 234 236 241 247 254 260 270